Flag for Canada Weather past 2 weeks in Rainy River, Ontario, Canada

Now
25 °F

Clear.


Feels Like: 17 °F
Forecast: 15 / 34 °F
Wind: 7 mph from Northeast

Location: Baudette International Airport


UV Index: 3 (Moderate)

Visibility: 10 mi


Pressure: 30.33 "Hg

Humidity: 44%

Dew point: 6 °F

Location of Rainy RiverLocation

Historic Weather in Rainy River

°F

Rainy River temperature yesterday

Maximum temperature yesterday: 37 °F (at 3:53 PM)
Minimum temperature yesterday: 17 °F (at 3:53 AM)
Average temperature yesterday: 28 °F

Past Weeks' High & Low Weather Summary

 TemperatureHumidityPressure
High56 °F (Apr 9, 3:53 PM)100% (Apr 5, 5:02 AM)30.33 "Hg (Apr 5, 5:02 AM)
Low-1 °F (Apr 2, 6:53 AM)25% (Apr 6, 4:53 PM)29.37 "Hg (Apr 9, 3:53 PM)
Average31 °F65%29.98 "Hg
* Reported Apr 2 12:53 AM — Apr 17 12:53 AM, Rainy River, Weather by CustomWeather, © 2014

Note: Actual official high and low records may vary slightly from our data, if they occured in-between our weather recording intervals... More about our weather records

Advertising

Historic Weather Conditions — Data for Previous 24 hours

 ConditionsComfort  
Time TempWeatherWind HumidityBarometerVisibility
12:53 AM
Apr 17
26 °FClear.8 mph46%30.33 "Hg10 mi
11:53 PM
Apr 16
28 °FPassing clouds.8 mph41%30.32 "Hg10 mi
10:53 PM28 °FPassing clouds.10 mph43%30.32 "Hg10 mi
9:53 PM29 °FClear.8 mph41%30.31 "Hg10 mi
8:53 PM30 °FSunny.8 mph41%30.30 "Hg10 mi
7:53 PM33 °FSunny.10 mph35%30.28 "Hg10 mi
6:53 PM36 °FSunny.14 mph27%30.27 "Hg10 mi
5:53 PM37 °FSunny.10 mph27%30.26 "Hg10 mi
4:53 PM37 °FSunny.12 mph25%30.25 "Hg10 mi
3:53 PM37 °FSunny.15 mph27%30.24 "Hg10 mi
2:53 PM36 °FSunny.8 mph27%30.24 "Hg10 mi
1:53 PM35 °FSunny.14 mph27%30.23 "Hg10 mi
12:53 PM34 °FSunny.14 mph31%30.23 "Hg10 mi
11:53 AM33 °FSunny.13 mph33%30.24 "Hg10 mi
10:53 AM31 °FSunny.15 mph36%30.24 "Hg10 mi
9:53 AM28 °FSunny.10 mph39%30.24 "Hg10 mi
8:53 AM25 °FPartly sunny.9 mph46%30.24 "Hg10 mi
7:53 AM20 °FOvercast.8 mph57%30.23 "Hg10 mi
6:53 AM19 °FPassing clouds.8 mph57%30.21 "Hg10 mi
5:53 AM18 °FPassing clouds.7 mph59%30.19 "Hg10 mi
4:53 AM17 °FClear.6 mph62%30.18 "Hg10 mi
3:53 AM17 °FClear.6 mph62%30.17 "Hg10 mi
2:53 AM19 °FClear.7 mph57%30.16 "Hg10 mi
Weather by CustomWeather, © 2014

See weather overview